This is the latest recevied weather packets stored in our database for station/object W3AJR. If no packets are shown the sender has not sent any weather packets the latest 10 day(s).
| Time | Temp. | Humidity | Pressure | Rain* | Wind** | Luminosity | Snow |
|---|---|---|---|---|---|---|---|
| 1778270542 | 22.78° C | 29% | 1010.9 hPa | 0 mm | - | 615 W/m² | - |
| 1778270239 | 22.78° C | 29% | 1011.4 hPa | 0 mm | - | 590 W/m² | - |
| 1778269935 | 22.78° C | 31% | 1011.2 hPa | 0 mm | - | 590 W/m² | - |
| 1778269632 | 22.22° C | 29% | 1011.5 hPa | 0 mm | - | 627 W/m² | - |
| 1778269329 | 22.78° C | 29% | 1011.6 hPa | 0 mm | - | 621 W/m² | - |
| 1778269026 | 22.78° C | 32% | 1011.6 hPa | 0 mm | - | 632 W/m² | - |
| 1778268723 | 22.78° C | 31% | 1011.6 hPa | 0 mm | - | 645 W/m² | - |
| 1778268419 | 22.78° C | 32% | 1011.9 hPa | 0 mm | - | 636 W/m² | - |
| 1778268117 | 22.78° C | 36% | 1011.8 hPa | 0 mm | - | 656 W/m² | - |
| 1778267814 | 22.78° C | 32% | 1011.8 hPa | 0 mm | - | 657 W/m² | - |
| 1778267510 | 22.78° C | 35% | 1011.8 hPa | 0 mm | - | 666 W/m² | - |
| 1778267208 | 22.22° C | 35% | 1011.9 hPa | 0 mm | - | 655 W/m² | - |
| 1778266904 | 22.78° C | 35% | 1012.1 hPa | 0 mm | - | 686 W/m² | - |
| 1778266601 | 21.67° C | 35% | 1012.1 hPa | 0 mm | - | 646 W/m² | - |
| 1778266298 | 22.22° C | 33% | 1012.3 hPa | 0 mm | - | 656 W/m² | - |
| 1778265995 | 22.22° C | 34% | 1012.6 hPa | 0 mm | - | 640 W/m² | - |
| 1778265692 | 21.67° C | 34% | 1012.3 hPa | 0 mm | - | 665 W/m² | - |
| 1778265389 | 22.22° C | 32% | 1012.6 hPa | 0 mm | - | 692 W/m² | - |
| 1778265085 | 21.11° C | 35% | 1012.8 hPa | 0 mm | - | 727 W/m² | - |
| 1778264781 | 21.11° C | 35% | 1012.7 hPa | 0 mm | - | 694 W/m² | - |
| 1778264478 | 21.11° C | 36% | 1013.1 hPa | 0 mm | - | 694 W/m² | - |
| 1778264173 | 21.67° C | 33% | 1013 hPa | 0 mm | - | 668 W/m² | - |
| 1778263871 | 21.11° C | 34% | 1013.2 hPa | 0 mm | - | 689 W/m² | - |
| 1778263568 | 21.67° C | 35% | 1013 hPa | 0 mm | - | 698 W/m² | - |
| 1778263264 | 21.67° C | 34% | 1013.4 hPa | 0 mm | - | 692 W/m² | - |
* Rain latest hour (hover to see other rain measurements)
** Current wind speed in m/s (hover to see current wind gust speed)